| time (UTC) | temp F | wind direction | speed MPH | gust MPH | rain 1hr in | rain 24hr in | rain mn in | humidity % | barometer mb |
| 20260510174502 | 66 | 299 | 2.0 | 5.0 | 0.00 | 0.43 | 0.00 | 71 | 1011.4 |
| 20260510174002 | 67 | 354 | 1.0 | 6.0 | 0.00 | 0.43 | 0.00 | 64 | 1011.3 |
| 20260510173502 | 68 | 253 | 3.0 | 6.0 | 0.00 | 0.43 | 0.00 | 61 | 1011.4 |
| 20260510173003 | 69 | 232 | 1.0 | 6.0 | 0.00 | 0.43 | 0.00 | 72 | 1011.4 |
| 20260510172503 | 68 | 240 | 3.0 | 6.0 | 0.00 | 0.43 | 0.00 | 66 | 1011.5 |
| 20260510172004 | 67 | 198 | 1.0 | 4.0 | 0.00 | 0.43 | 0.00 | 71 | 1011.5 |
| 20260510171503 | 66 | 158 | 2.0 | 4.0 | 0.00 | 0.43 | 0.00 | 70 | 1011.5 |
| 20260510171003 | 66 | 359 | 2.0 | 4.0 | 0.00 | 0.43 | 0.00 | 73 | 1011.6 |
| 20260510170004 | 66 | 254 | 2.0 | 7.0 | 0.00 | 0.43 | 0.00 | 67 | 1011.5 |
| 20260510165001 | 66 | 55 | 1.0 | 8.0 | 0.00 | 0.43 | 0.00 | 66 | 1011.8 |
| 20260510164500 | 66 | 266 | 1.0 | 8.0 | 0.00 | 0.43 | 0.00 | 72 | 1011.9 |
| 20260510163501 | 66 | 283 | 3.0 | 6.0 | 0.00 | 0.43 | 0.00 | 70 | 1012.0 |
| 20260510163001 | 66 | 253 | 2.0 | 4.0 | 0.00 | 0.43 | 0.00 | 75 | 1012.1 |
| 20260510162501 | 66 | 203 | 1.0 | 5.0 | 0.00 | 0.43 | 0.00 | 78 | 1012.1 |
| 20260510162001 | 65 | 144 | 1.0 | 6.0 | 0.00 | 0.43 | 0.00 | 69 | 1012.1 |
| 20260510161500 | 66 | 172 | 3.0 | 6.0 | 0.00 | 0.43 | 0.00 | 67 | 1012.1 |
| 20260510160501 | 64 | 240 | 2.0 | 6.0 | 0.00 | 0.43 | 0.00 | 73 | 1012.1 |
| 20260510160001 | 63 | 324 | 1.0 | 4.0 | 0.00 | 0.43 | 0.00 | 72 | 1012.1 |
| 20260510155504 | 64 | 319 | 1.0 | 4.0 | 0.00 | 0.43 | 0.00 | 75 | 1012.1 |
| 20260510155001 | 62 | 257 | 1.0 | 5.0 | 0.00 | 0.43 | 0.00 | 78 | 1012.3 |
| 20260510154002 | 62 | 159 | 2.0 | 5.0 | 0.00 | 0.43 | 0.00 | 71 | 1012.4 |
| 20260510153501 | 63 | 240 | 2.0 | 5.0 | 0.00 | 0.43 | 0.00 | 74 | 1012.4 |
| 20260510152500 | 62 | 217 | 1.0 | 6.0 | 0.00 | 0.43 | 0.00 | 75 | 1012.6 |
| 20260510152001 | 62 | 95 | 2.0 | 6.0 | 0.00 | 0.43 | 0.00 | 83 | 1012.5 |
| 20260510151501 | 62 | 284 | 3.0 | 5.0 | 0.00 | 0.43 | 0.00 | 76 | 1012.6 |
| 20260510151001 | 62 | 335 | 2.0 | 5.0 | 0.00 | 0.43 | 0.00 | 72 | 1012.6 |
| 20260510150501 | 63 | 212 | 3.0 | 4.0 | 0.00 | 0.43 | 0.00 | 77 | 1012.5 |
| 20260510145500 | 56 | 120 | 0.0 | 3.0 | 0.00 | 0.43 | 0.00 | 93 | 1012.6 |
| 20260510145001 | 56 | 120 | 0.0 | 3.0 | 0.00 | 0.43 | 0.00 | 93 | 1012.6 |
| 20260510144501 | 56 | 120 | 0.0 | 3.0 | 0.00 | 0.43 | 0.00 | 93 | 1012.6 |
| 20260510144001 | 56 | 120 | 0.0 | 3.0 | 0.00 | 0.43 | 0.00 | 93 | 1012.6 |
| 20260510143001 | 56 | 120 | 0.0 | 3.0 | 0.00 | 0.43 | 0.00 | 93 | 1012.6 |
| 20260510141501 | 56 | 120 | 0.0 | 3.0 | 0.00 | 0.43 | 0.00 | 93 | 1012.6 |
| 20260510141001 | 56 | 120 | 0.0 | 3.0 | 0.00 | 0.43 | 0.00 | 93 | 1012.6 |
| 20260510140459 | 56 | 120 | 0.0 | 3.0 | 0.00 | 0.43 | 0.00 | 93 | 1012.6 |
| 20260510140003 | 56 | 120 | 0.0 | 3.0 | 0.00 | 0.43 | 0.00 | 93 | 1012.6 |
| 20260510135504 | 56 | 120 | 0.0 | 3.0 | 0.00 | 0.43 | 0.00 | 93 | 1012.6 |
| 20260510135002 | 55 | 196 | 1.0 | 3.0 | 0.00 | 0.43 | 0.00 | 90 | 1012.6 |
| 20260510134502 | 55 | 189 | 1.0 | 3.0 | 0.00 | 0.43 | 0.00 | 92 | 1012.5 |
| 20260510134003 | 54 | 229 | 0.0 | 3.0 | 0.00 | 0.43 | 0.00 | 93 | 1012.4 |
| 20260510133003 | 54 | 158 | 0.0 | 1.0 | 0.00 | 0.43 | 0.00 | 95 | 1012.4 |
| 20260510132502 | 53 | 60 | 0.0 | 1.0 | 0.00 | 0.43 | 0.00 | 95 | 1012.5 |
| 20260510132003 | 53 | 60 | 0.0 | 2.0 | 0.00 | 0.43 | 0.00 | 93 | 1012.5 |
| 20260510131502 | 53 | 315 | 0.0 | 3.0 | 0.00 | 0.43 | 0.00 | 93 | 1012.5 |
| 20260510131002 | 53 | 236 | 1.0 | 3.0 | 0.00 | 0.43 | 0.00 | 93 | 1012.5 |
| 20260510130503 | 53 | 315 | 0.0 | 3.0 | 0.00 | 0.43 | 0.00 | 95 | 1012.4 |
| 20260510130003 | 53 | 174 | 1.0 | 3.0 | 0.00 | 0.43 | 0.00 | 95 | 1012.4 |
| 20260510125001 | 53 | 162 | 0.0 | 2.0 | 0.00 | 0.44 | 0.00 | 94 | 1012.2 |
| 20260510124501 | 53 | 139 | 0.0 | 2.0 | 0.00 | 0.44 | 0.00 | 95 | 1012.2 |
| 20260510124002 | 53 | 193 | 1.0 | 2.0 | 0.00 | 0.44 | 0.00 | 96 | 1012.1 |
| 20260510123502 | 53 | 290 | 0.0 | 2.0 | 0.00 | 0.44 | 0.00 | 94 | 1012.0 |
| 20260510123001 | 52 | 264 | 0.0 | 3.0 | 0.00 | 0.44 | 0.00 | 93 | 1012.0 |
| 20260510122001 | 52 | 156 | 0.0 | 2.0 | 0.00 | 0.44 | 0.00 | 95 | 1012.0 |
| 20260510121501 | 53 | 115 | 0.0 | 2.0 | 0.00 | 0.44 | 0.00 | 97 | 1012.1 |
| 20260510121001 | 52 | 123 | 1.0 | 2.0 | 0.00 | 0.44 | 0.00 | 96 | 1012.0 |
| 20260510115501 | 51 | 136 | 1.0 | 3.0 | 0.00 | 0.44 | 0.00 | 97 | 1012.0 |
| 20260510115001 | 51 | 155 | 0.0 | 2.0 | 0.00 | 0.44 | 0.00 | 97 | 1012.0 |
| 20260510114501 | 51 | 156 | 1.0 | 2.0 | 0.00 | 0.44 | 0.00 | 98 | 1011.8 |
| 20260510113501 | 51 | 63 | 0.0 | 0.0 | 0.00 | 0.44 | 0.00 | 99 | 1011.9 |
| 20260510113000 | 51 | 94 | 0.0 | 1.0 | 0.00 | 0.44 | 0.00 | 99 | 1011.7 |
| 20260510112500 | 51 | 94 | 0.0 | 1.0 | 0.00 | 0.44 | 0.00 | 99 | 1011.7 |
| 20260510112002 | 51 | 94 | 0.0 | 0.0 | 0.00 | 0.44 | 0.00 | 99 | 1011.7 |
| 20260510111502 | 51 | 94 | 0.0 | 0.0 | 0.00 | 0.44 | 0.00 | 100 | 1011.7 |
| 20260510111001 | 51 | 94 | 0.0 | 0.0 | 0.00 | 0.44 | 0.00 | 100 | 1011.5 |
| 20260510110502 | 51 | 94 | 0.0 | 0.0 | 0.00 | 0.44 | 0.00 | 99 | 1011.5 |
| 20260510110002 | 51 | 71 | 0.0 | 0.0 | 0.00 | 0.44 | 0.00 | 99 | 1011.6 |
| 20260510104501 | 50 | 342 | 0.0 | 2.0 | 0.00 | 0.45 | 0.00 | 99 | 1011.5 |
| 20260510104001 | 50 | 342 | 1.0 | 2.0 | 0.00 | 0.45 | 0.00 | 99 | 1011.5 |
| 20260510103501 | 50 | 332 | 0.0 | 0.0 | 0.00 | 0.45 | 0.00 | 99 | 1011.4 |
| 20260510103003 | 50 | 332 | 0.0 | 0.0 | 0.00 | 0.45 | 0.00 | 99 | 1011.3 |
| 20260510102501 | 50 | 332 | 0.0 | 4.0 | 0.00 | 0.45 | 0.00 | 99 | 1011.3 |
| 20260510102002 | 50 | 332 | 0.0 | 5.0 | 0.00 | 0.45 | 0.00 | 99 | 1011.4 |
| 20260510101501 | 50 | 310 | 1.0 | 5.0 | 0.00 | 0.45 | 0.00 | 99 | 1011.4 |
| 20260510101002 | 50 | 307 | 1.0 | 5.0 | 0.00 | 0.45 | 0.00 | 99 | 1011.1 |
| 20260510100502 | 50 | 319 | 0.0 | 5.0 | 0.00 | 0.45 | 0.00 | 100 | 1011.0 |
| 20260510100003 | 50 | 359 | 1.0 | 4.0 | 0.00 | 0.45 | 0.00 | 100 | 1010.9 |
| 20260510095501 | 50 | 159 | 1.0 | 4.0 | 0.00 | 0.46 | 0.00 | 100 | 1010.7 |
| 20260510095001 | 50 | 165 | 1.0 | 4.0 | 0.00 | 0.46 | 0.00 | 100 | 1011.1 |
| 20260510094502 | 50 | 268 | 1.0 | 4.0 | 0.00 | 0.46 | 0.00 | 100 | 1011.4 |
| 20260510094002 | 50 | 309 | 1.0 | 4.0 | 0.00 | 0.46 | 0.00 | 100 | 1011.2 |
| 20260510093500 | 50 | 176 | 0.0 | 2.0 | 0.00 | 0.46 | 0.00 | 100 | 1011.0 |
| 20260510093002 | 50 | 173 | 1.0 | 2.0 | 0.00 | 0.46 | 0.00 | 100 | 1011.2 |
| 20260510092002 | 50 | 146 | 0.0 | 1.0 | 0.00 | 0.46 | 0.00 | 100 | 1011.2 |
| 20260510091502 | 50 | 151 | 0.0 | 1.0 | 0.00 | 0.46 | 0.00 | 100 | 1011.0 |
| 20260510091002 | 50 | 108 | 0.0 | 1.0 | 0.00 | 0.46 | 0.00 | 100 | 1011.1 |
| 20260510090003 | 50 | 180 | 0.0 | 1.0 | 0.00 | 0.46 | 0.00 | 100 | 1011.1 |
| 20260510085001 | 50 | 297 | 0.0 | 0.0 | 0.00 | 0.49 | 0.00 | 100 | 1011.4 |
| 20260510084502 | 50 | 315 | 0.0 | 0.0 | 0.00 | 0.49 | 0.00 | 100 | 1011.5 |
| 20260510082003 | 51 | 315 | 0.0 | 0.0 | 0.00 | 0.49 | 0.00 | 100 | 1011.2 |
| 20260510081503 | 51 | 315 | 0.0 | 0.0 | 0.00 | 0.49 | 0.00 | 100 | 1011.1 |
| 20260510081001 | 51 | 310 | 0.0 | 2.0 | 0.00 | 0.49 | 0.00 | 100 | 1011.2 |
| 20260510080502 | 51 | 310 | 0.0 | 2.0 | 0.00 | 0.49 | 0.00 | 100 | 1011.2 |
| 20260510080002 | 51 | 350 | 0.0 | 2.0 | 0.00 | 0.49 | 0.00 | 100 | 1011.2 |
| 20260510075502 | 51 | 262 | 0.0 | 1.0 | 0.00 | 0.49 | 0.00 | 100 | 1011.1 |
| 20260510075001 | 51 | 319 | 0.0 | 0.0 | 0.00 | 0.49 | 0.00 | 100 | 1011.2 |
| 20260510074502 | 51 | 319 | 0.0 | 0.0 | 0.00 | 0.49 | 0.00 | 100 | 1011.1 |
| 20260510074001 | 51 | 319 | 0.0 | 0.0 | 0.00 | 0.49 | 0.00 | 100 | 1011.0 |
| 20260510073502 | 51 | 319 | 0.0 | 0.0 | 0.00 | 0.49 | 0.00 | 100 | 1010.9 |
| 20260510073002 | 51 | 319 | 0.0 | 0.0 | 0.00 | 0.49 | 0.00 | 100 | 1010.9 |
| 20260510072502 | 51 | 319 | 0.0 | 0.0 | 0.00 | 0.49 | 0.00 | 100 | 1010.9 |
| 20260510071503 | 51 | 319 | 0.0 | 0.0 | 0.00 | 0.49 | 0.00 | 100 | 1011.0 |
| 20260510071000 | 51 | 319 | 0.0 | 0.0 | 0.00 | 0.49 | 0.00 | 100 | 1010.9 |
| 20260510070501 | 51 | 319 | 0.0 | 0.0 | 0.00 | 0.49 | 0.00 | 100 | 1010.9 |
| 20260510070003 | 51 | 319 | 0.0 | 0.0 | 0.00 | 0.49 | 0.00 | 100 | 1010.9 |
| 20260510064503 | 51 | 319 | 0.0 | 0.0 | 0.00 | 0.49 | 0.00 | 100 | 1010.9 |
| 20260510064001 | 51 | 319 | 0.0 | 0.0 | 0.00 | 0.49 | 0.00 | 100 | 1011.0 |
| 20260510063501 | 51 | 319 | 0.0 | 0.0 | 0.00 | 0.49 | 0.00 | 100 | 1011.0 |
| 20260510063002 | 51 | 319 | 0.0 | 0.0 | 0.00 | 0.49 | 0.00 | 100 | 1010.9 |
| 20260510062501 | 51 | 319 | 0.0 | 0.0 | 0.00 | 0.49 | 0.00 | 100 | 1010.6 |
| 20260510062001 | 51 | 319 | 0.0 | 1.0 | 0.00 | 0.49 | 0.00 | 100 | 1010.6 |
| 20260510061501 | 51 | 319 | 0.0 | 1.0 | 0.00 | 0.49 | 0.00 | 100 | 1010.4 |
| 20260510061001 | 51 | 321 | 0.0 | 1.0 | 0.00 | 0.49 | 0.00 | 100 | 1010.4 |
| 20260510060502 | 51 | 321 | 0.0 | 1.0 | 0.00 | 0.49 | 0.00 | 100 | 1010.5 |
| 20260510060001 | 51 | 290 | 0.0 | 0.0 | 0.00 | 0.49 | 0.00 | 100 | 1010.6 |
| 20260510055500 | 51 | 290 | 0.0 | 0.0 | 0.00 | 0.49 | 0.00 | 100 | 1010.5 |
| 20260510055000 | 51 | 290 | 0.0 | 1.0 | 0.00 | 0.49 | 0.00 | 100 | 1010.5 |
| 20260510054500 | 51 | 290 | 0.0 | 1.0 | 0.00 | 0.49 | 0.00 | 100 | 1010.6 |
| 20260510054002 | 51 | 266 | 0.0 | 0.0 | 0.00 | 0.49 | 0.00 | 100 | 1010.7 |
| 20260510053501 | 51 | 302 | 0.0 | 0.0 | 0.00 | 0.49 | 0.00 | 100 | 1010.7 |
| 20260510053000 | 51 | 302 | 0.0 | 0.0 | 0.00 | 0.49 | 0.00 | 100 | 1010.6 |
| 20260510052500 | 51 | 302 | 0.0 | 0.0 | 0.00 | 0.49 | 0.00 | 100 | 1010.5 |
| 20260510051000 | 51 | 302 | 0.0 | 0.0 | 0.00 | 0.49 | 0.00 | 100 | 1010.9 |
| 20260510050500 | 51 | 302 | 0.0 | 0.0 | 0.00 | 0.49 | 0.00 | 100 | 1010.9 |
| 20260510050000 | 51 | 302 | 0.0 | 0.0 | 0.00 | 0.49 | 0.00 | 100 | 1010.7 |
| 20260510045000 | 51 | 302 | 0.0 | 0.0 | 0.00 | 0.49 | 0.00 | 100 | 1010.8 |
| 20260510044500 | 51 | 302 | 0.0 | 0.0 | 0.00 | 0.49 | 0.00 | 100 | 1010.9 |
| 20260510044000 | 51 | 302 | 0.0 | 0.0 | 0.00 | 0.49 | 0.00 | 99 | 1010.7 |
| 20260510043500 | 51 | 302 | 0.0 | 0.0 | 0.00 | 0.49 | 0.00 | 99 | 1010.8 |
| 20260510042959 | 51 | 302 | 0.0 | 0.0 | 0.00 | 0.49 | 0.00 | 99 | 1010.9 |
| 20260510042501 | 51 | 302 | 0.0 | 0.0 | 0.00 | 0.49 | 0.00 | 99 | 1010.8 |
| 20260510041501 | 51 | 302 | 0.0 | 1.0 | 0.00 | 0.49 | 0.00 | 99 | 1010.7 |
| 20260510041000 | 51 | 292 | 0.0 | 1.0 | 0.00 | 0.49 | 0.00 | 100 | 1010.7 |
| 20260510040501 | 51 | 281 | 0.0 | 1.0 | 0.00 | 0.49 | 0.00 | 100 | 1010.8 |
| 20260510040006 | 51 | 311 | 0.0 | 1.0 | 0.00 | 0.49 | 0.49 | 100 | 1010.8 |
| 20260510035501 | 51 | 105 | 0.0 | 1.0 | 0.00 | 0.49 | 0.49 | 100 | 1010.8 |
| 20260510035002 | 52 | 60 | 0.0 | 1.0 | 0.00 | 0.49 | 0.49 | 100 | 1010.9 |
| 20260510034503 | 52 | 291 | 0.0 | 2.0 | 0.00 | 0.49 | 0.49 | 100 | 1010.7 |
| 20260510034003 | 52 | 279 | 0.0 | 5.0 | 0.00 | 0.49 | 0.49 | 100 | 1010.8 |
| 20260510033502 | 52 | 274 | 2.0 | 5.0 | 0.00 | 0.49 | 0.49 | 100 | 1010.6 |
| 20260510033003 | 52 | 259 | 0.0 | 2.0 | 0.00 | 0.49 | 0.49 | 100 | 1010.7 |
| 20260510032502 | 52 | 255 | 1.0 | 3.0 | 0.00 | 0.49 | 0.49 | 99 | 1010.7 |
| 20260510031503 | 52 | 265 | 2.0 | 3.0 | 0.00 | 0.49 | 0.49 | 99 | 1010.9 |
| 20260510030502 | 52 | 261 | 0.0 | 3.0 | 0.00 | 0.49 | 0.49 | 99 | 1011.0 |
| 20260510030002 | 52 | 297 | 2.0 | 4.0 | 0.00 | 0.49 | 0.49 | 99 | 1010.8 |
| 20260510025504 | 52 | 303 | 2.0 | 4.0 | 0.00 | 0.49 | 0.49 | 99 | 1010.7 |
| 20260510025002 | 52 | 261 | 0.0 | 4.0 | 0.00 | 0.49 | 0.49 | 99 | 1010.6 |
| 20260510024502 | 52 | 74 | 0.0 | 3.0 | 0.00 | 0.49 | 0.49 | 100 | 1010.6 |
| 20260510024003 | 52 | 290 | 1.0 | 3.0 | 0.00 | 0.49 | 0.49 | 100 | 1010.5 |
| 20260510023002 | 52 | 292 | 0.0 | 1.0 | 0.00 | 0.49 | 0.49 | 100 | 1010.6 |
| 20260510022502 | 52 | 37 | 0.0 | 0.0 | 0.00 | 0.49 | 0.49 | 99 | 1010.7 |
| 20260510021502 | 52 | 37 | 0.0 | 2.0 | 0.00 | 0.49 | 0.49 | 99 | 1010.8 |
| 20260510020004 | 52 | 280 | 0.0 | 0.0 | 0.00 | 0.49 | 0.49 | 100 | 1011.0 |
| 20260510015503 | 52 | 276 | 0.0 | 0.0 | 0.00 | 0.49 | 0.49 | 100 | 1011.0 |
| 20260510015003 | 52 | 263 | 0.0 | 0.0 | 0.00 | 0.49 | 0.49 | 100 | 1011.0 |
| 20260510014504 | 52 | 276 | 154.0 | 655.0 | 3.84 | 0.00 | 0.49 | 100 | |
| 20260510013502 | 52 | 276 | 0.0 | 0.0 | 0.00 | 0.49 | 0.49 | 100 | 1011.1 |
| 20260510013003 | 52 | 202 | 0.0 | 0.0 | 0.00 | 0.49 | 0.49 | 100 | 1011.1 |
| 20260510012503 | 52 | 202 | 0.0 | 0.0 | 0.00 | 0.49 | 0.49 | 100 | 1011.0 |
| 20260510012002 | 52 | 213 | 0.0 | 0.0 | 0.00 | 0.49 | 0.49 | 100 | 1011.0 |
| 20260510011501 | 52 | 146 | 0.0 | 0.0 | 0.00 | 0.49 | 0.49 | 100 | 1010.8 |
| 20260510011002 | 52 | 146 | 0.0 | 2.0 | 0.00 | 0.49 | 0.49 | 100 | 1010.7 |
| 20260510010502 | 52 | 146 | 0.0 | 2.0 | 0.00 | 0.49 | 0.49 | 100 | 1010.7 |
| 20260510005504 | 52 | 353 | 0.0 | 0.0 | 0.00 | 0.49 | 0.49 | 100 | 1010.7 |
| 20260510005004 | 52 | 343 | 0.0 | 0.0 | 0.01 | 0.49 | 0.49 | 100 | 1010.6 |
| 20260510004503 | 52 | 343 | 0.0 | 0.0 | 0.01 | 0.49 | 0.49 | 100 | 1010.6 |
| 20260510004003 | 52 | 343 | 0.0 | 2.0 | 0.01 | 0.49 | 0.49 | 100 | 1010.5 |
| 20260510003505 | 52 | 343 | 0.0 | 2.0 | 0.01 | 0.49 | 0.49 | 100 | 1010.5 |
| 20260510003004 | 52 | 129 | 0.0 | 1.0 | 0.01 | 0.49 | 0.49 | 100 | 1010.2 |
| 20260510002505 | 52 | 286 | 0.0 | 1.0 | 0.01 | 0.49 | 0.49 | 100 | 1010.3 |
| 20260510001503 | 51 | 268 | 0.0 | 1.0 | 0.01 | 0.49 | 0.49 | 100 | 1010.1 |
| 20260510001003 | 51 | 289 | 0.0 | 1.0 | 0.01 | 0.49 | 0.49 | 100 | 1010.1 |
| 20260510000503 | 51 | 289 | 0.0 | 1.0 | 0.01 | 0.49 | 0.49 | 100 | 1010.0 |
| 20260509235001 | 51 | 252 | 0.0 | 1.0 | 0.00 | 0.48 | 0.48 | 100 | 1010.0 |
| 20260509234504 | 51 | 259 | 0.0 | 2.0 | 0.00 | 0.48 | 0.48 | 100 | 1010.0 |
| 20260509234004 | 51 | 115 | 0.0 | 2.0 | 0.00 | 0.48 | 0.48 | 100 | 1010.0 |
| 20260509233503 | 51 | 111 | 1.0 | 2.0 | 0.00 | 0.48 | 0.48 | 100 | 1010.1 |
| 20260509233001 | 51 | 166 | 0.0 | 2.0 | 0.00 | 0.48 | 0.48 | 100 | 1010.4 |
| 20260509232503 | 51 | 115 | 0.0 | 1.0 | 0.01 | 0.48 | 0.48 | 100 | 1010.5 |
| 20260509232002 | 51 | 245 | 0.0 | 0.0 | 0.02 | 0.48 | 0.48 | 100 | 1010.6 |
| 20260509231002 | 51 | 318 | 0.0 | 1.0 | 0.02 | 0.48 | 0.48 | 100 | 1010.5 |
| 20260509230504 | 51 | 297 | 0.0 | 0.0 | 0.03 | 0.48 | 0.48 | 100 | 1010.5 |
| 20260509230004 | 51 | 295 | 0.0 | 1.0 | 0.03 | 0.48 | 0.48 | 100 | 1010.6 |
| 20260509225503 | 51 | 295 | 0.0 | 1.0 | 0.03 | 0.48 | 0.48 | 100 | 1010.7 |
| 20260509224504 | 51 | 102 | 0.0 | 1.0 | 0.04 | 0.48 | 0.48 | 100 | 1010.6 |
| 20260509224003 | 51 | 173 | 0.0 | 1.0 | 0.04 | 0.48 | 0.48 | 100 | 1010.7 |
| 20260509223502 | 50 | 309 | 0.0 | 1.0 | 0.04 | 0.48 | 0.48 | 100 | 1010.6 |
| 20260509222502 | 50 | 86 | 0.0 | 2.0 | 0.03 | 0.47 | 0.47 | 100 | 1010.6 |
| 20260509222002 | 50 | 94 | 1.0 | 2.0 | 0.02 | 0.46 | 0.46 | 100 | 1010.7 |
| 20260509220503 | 50 | 123 | 0.0 | 0.0 | 0.02 | 0.45 | 0.45 | 100 | 1011.0 |
| 20260509215503 | 50 | 103 | 0.0 | 0.0 | 0.03 | 0.45 | 0.45 | 100 | 1011.1 |
| 20260509215002 | 50 | 103 | 0.0 | 0.0 | 0.03 | 0.45 | 0.45 | 100 | 1011.0 |
| 20260509214502 | 50 | 103 | 0.0 | 0.0 | 0.03 | 0.44 | 0.44 | 100 | 1011.0 |
| 20260509214003 | 50 | 94 | 0.0 | 0.0 | 0.04 | 0.44 | 0.44 | 100 | 1010.9 |
| 20260509213504 | 50 | 94 | 0.0 | 0.0 | 0.05 | 0.44 | 0.44 | 100 | 1010.9 |
| 20260509213003 | 50 | 94 | 0.0 | 0.0 | 0.08 | 0.44 | 0.44 | 100 | 1010.9 |
| 20260509212503 | 49 | 82 | 0.0 | 0.0 | 0.10 | 0.44 | 0.44 | 100 | 1010.9 |
| 20260509212003 | 50 | 82 | 0.0 | 1.0 | 0.10 | 0.44 | 0.44 | 100 | 1010.7 |
| 20260509211502 | 49 | 82 | 0.0 | 2.0 | 0.11 | 0.44 | 0.44 | 100 | 1010.9 |
| 20260509211003 | 49 | 83 | 0.0 | 2.0 | 0.12 | 0.44 | 0.44 | 100 | 1011.0 |
| 20260509210504 | 50 | 113 | 0.0 | 2.0 | 0.12 | 0.43 | 0.43 | 100 | 1011.0 |
| 20260509210001 | 49 | 112 | 1.0 | 2.0 | 0.13 | 0.43 | 0.43 | 100 | 1011.0 |
| 20260509205001 | 49 | 305 | 0.0 | 2.0 | 0.14 | 0.42 | 0.42 | 100 | 1010.9 |
| 20260509204503 | 49 | 71 | 1.0 | 2.0 | 0.15 | 0.41 | 0.41 | 100 | 1011.0 |
| 20260509204001 | 49 | 148 | 1.0 | 1.0 | 0.16 | 0.40 | 0.40 | 100 | 1011.4 |
| 20260509203501 | 50 | 117 | 0.0 | 2.0 | 0.14 | 0.38 | 0.38 | 100 | 1011.4 |
| 20260509203001 | 49 | 6 | 0.0 | 3.0 | 0.15 | 0.36 | 0.36 | 100 | 1011.4 |
| 20260509202500 | 49 | 94 | 1.0 | 3.0 | 0.19 | 0.34 | 0.34 | 100 | 1011.2 |
| 20260509202001 | 49 | 98 | 1.0 | 2.0 | 0.24 | 0.34 | 0.34 | 100 | 1011.2 |
| 20260509201502 | 49 | 106 | 0.0 | 2.0 | 0.25 | 0.33 | 0.33 | 100 | 1011.2 |
| 20260509201001 | 49 | 98 | 1.0 | 2.0 | 0.24 | 0.32 | 0.32 | 100 | 1011.2 |
| 20260509200501 | 49 | 74 | 0.0 | 2.0 | 0.24 | 0.31 | 0.31 | 100 | 1011.2 |
| 20260509200003 | 49 | 74 | 0.0 | 2.0 | 0.24 | 0.30 | 0.30 | 100 | 1010.9 |
| 20260509195503 | 50 | 105 | 0.0 | 3.0 | 0.23 | 0.29 | 0.29 | 100 | 1011.2 |
| 20260509195002 | 49 | 105 | 0.0 | 3.0 | 0.22 | 0.28 | 0.28 | 100 | 1011.2 |
| 20260509194501 | 50 | 94 | 1.0 | 3.0 | 0.20 | 0.26 | 0.26 | 100 | 1011.2 |
| 20260509193501 | 49 | 335 | 1.0 | 3.0 | 0.18 | 0.24 | 0.24 | 100 | 1011.4 |
| 20260509193001 | 49 | 70 | 2.0 | 3.0 | 0.15 | 0.21 | 0.21 | 100 | 1011.3 |
| 20260509192502 | 49 | 237 | 2.0 | 3.0 | 0.09 | 0.15 | 0.15 | 99 | 1011.6 |
| 20260509192001 | 49 | 103 | 0.0 | 2.0 | 0.04 | 0.10 | 0.10 | 99 | 1011.4 |
| 20260509191501 | 50 | 88 | 1.0 | 2.0 | 0.02 | 0.08 | 0.08 | 98 | 1011.3 |
| 20260509191001 | 50 | 88 | 0.0 | 0.0 | 0.02 | 0.08 | 0.08 | 98 | 1011.4 |
| 20260509190502 | 50 | 88 | 0.0 | 2.0 | 0.01 | 0.07 | 0.07 | 96 | 1011.2 |
| 20260509190006 | 50 | 88 | 0.0 | 2.0 | 0.00 | 0.06 | 0.06 | 95 | 1011.2 |
| 20260509185503 | 50 | 92 | 0.0 | 2.0 | 0.00 | 0.06 | 0.06 | 94 | 1011.2 |
| 20260509185002 | 51 | 92 | 1.0 | 2.0 | 0.00 | 0.06 | 0.06 | 95 | 1011.2 |
| 20260509184503 | 51 | 58 | 0.0 | 0.0 | 0.00 | 0.06 | 0.06 | 95 | 1011.2 |
| 20260509184002 | 51 | 58 | 0.0 | 1.0 | 0.00 | 0.06 | 0.06 | 92 | 1011.1 |
| 20260509183502 | 51 | 58 | 0.0 | 1.0 | 0.00 | 0.06 | 0.06 | 92 | 1011.1 |
| 20260509183003 | 51 | 58 | 0.0 | 1.0 | 0.00 | 0.06 | 0.06 | 90 | 1011.1 |
| 20260509182002 | 52 | 58 | 1.0 | 3.0 | 0.00 | 0.06 | 0.06 | 92 | 1011.1 |
| 20260509181503 | 52 | 82 | 1.0 | 2.0 | 0.00 | 0.06 | 0.06 | 91 | 1011.0 |
| 20260509181001 | 52 | 102 | 1.0 | 2.0 | 0.00 | 0.06 | 0.06 | 92 | 1011.1 |
| 20260509180503 | 52 | 54 | 1.0 | 2.0 | 0.00 | 0.06 | 0.06 | 89 | 1011.2 |
| 20260509180003 | 52 | 65 | 0.0 | 2.0 | 0.00 | 0.06 | 0.06 | 89 | 1011.1 |
| 20260509175501 | 52 | 65 | 1.0 | 2.0 | 0.00 | 0.06 | 0.06 | 88 | 1011.1 |